Location: La Trinit�
(48.1620°N, 3.4512°W)
Time: 19:23:11
(UTC+00:00)

OBJECT-B - Visible Passes

Search period start: 19 September 2021 00:00
Search period end: 29 September 2021 00:00
Orbit: 409 x 418 km, 96.9° (Epoch: 16 September)

Date Brightness Start Highest point End Pass type
(mag) Time Alt. Az. Time Alt. Az. Time Alt. Az.
19 Sep 0.9 19:28:47 15° SSE 19:31:13 51° ENE 19:34:19 10° N visible
20 Sep 2.3 20:15:25 19° SSW 20:17:14 35° W 20:20:13 10° NNW visible
21 Sep 0.9 19:29:06 19° SE 19:31:10 51° ENE 19:34:16 10° N visible
22 Sep 2.6 18:43:30 10° E 18:45:22 15° ENE 18:47:14 10° NNE visible
22 Sep 2.3 20:15:41 22° SSW 20:17:10 35° W 20:20:08 10° NNW visible
23 Sep 0.9 19:29:21 23° SE 19:31:03 51° ENE 19:34:09 10° N visible
24 Sep 2.6 18:43:21 10° E 18:45:13 15° ENE 18:47:05 10° NNE visible
24 Sep 2.3 20:15:54 26° SW 20:17:01 35° W 20:19:58 10° NNW visible
25 Sep 0.9 19:29:31 28° SE 19:30:52 51° ENE 19:33:58 10° N visible
26 Sep 2.6 18:43:08 10° E 18:45:00 15° ENE 18:46:50 10° NNE visible
26 Sep 2.2 20:16:02 30° SW 20:16:47 35° W 20:19:44 10° NNW visible
27 Sep 0.9 19:29:37 35° SE 19:30:35 51° ENE 19:33:41 10° N visible
28 Sep 2.6 18:43:12 11° E 18:44:41 15° ENE 18:46:32 10° NNE visible
28 Sep 2.2 20:16:06 34° WSW 20:16:28 35° W 20:19:26 10° NNW visible
